When you browse on this site, cookies collect data to enhance your experience and personalize the content and advertising you see.
Visit our Privacy Policy to learn more. By continuing to use the site, you agree to this use of cookies and data.
  • In United Kingdom
  • List of Countries
  • For 7 days
  • Water Temperature
  • Satellite Maps
  • Weather Map
  • Weather Widgets
  • user-avatar
    Login

    Hourly Weather Barra

    Today, 15 December, Saturday

    Time Temperature Precipitation Wind Pressure Humidity
    00:00 +26°C° 0.3 mm 1 mps 743 mmHg 91%
    01:00 +26°C° 0.3 mm 1 mps 743 mmHg 92%
    02:00 +26°C° 0.1 mm 1 mps 743 mmHg 91%
    03:00 +26°C° 0.1 mm 1 mps 743 mmHg 91%
    04:00 +26°C° 0 mm 1 mps 743 mmHg 92%
    05:00 +27°C° 0.4 mm 1 mps 743 mmHg 91%
    06:00 +25°C° 0.4 mm 0 mps 743 mmHg 90%
    07:00 +25°C° 0.4 mm 0 mps 743 mmHg 89%
    08:00 +29°C° 0.2 mm 1 mps 743 mmHg 79%
    09:00 +30°C° 0.2 mm 1 mps 744 mmHg 69%
    10:00 +32°C° 0 mm 2 mps 742 mmHg 64%
    11:00 +31°C° 0.9 mm 3 mps 742 mmHg 69%
    12:00 +30°C° 0.9 mm 3 mps 742 mmHg 75%
    13:00 +29°C° 0.9 mm 4 mps 742 mmHg 80%
    14:00 +29°C° 1.3 mm 4 mps 741 mmHg 83%
    15:00 +28°C° 1.3 mm 4 mps 741 mmHg 87%
    16:00 +28°C° 0 mm 3 mps 740 mmHg 90%
    17:00 +28°C° 1.7 mm 4 mps 740 mmHg 92%
    18:00 +27°C° 1.7 mm 4 mps 740 mmHg 94%
    19:00 +27°C° 1.7 mm 5 mps 740 mmHg 96%
    20:00 +27°C° 4.7 mm 6 mps 741 mmHg 95%
    21:00 +27°C° 4.7 mm 7 mps 741 mmHg 95%
    22:00 +27°C° 4.7 mm 8 mps 741 mmHg 94%
    23:00 +26°C° 2.2 mm 7 mps 741 mmHg 91%

    Tomorrow, 16 December, Sunday

    Time Temperature Precipitation Wind Pressure Humidity
    00:00 +26°C° 2.2 mm 6 mps 740 mmHg 87%
    01:00 +25°C° 2.2 mm 5 mps 740 mmHg 83%
    02:00 +23°C° 0 mm 5 mps 740 mmHg 82%
    03:00 +23°C° 0 mm 4 mps 740 mmHg 82%
    04:00 +23°C° 0 mm 4 mps 740 mmHg 81%
    05:00 +23°C° 0 mm 4 mps 740 mmHg 78%
    06:00 +25°C° 0 mm 4 mps 740 mmHg 76%
    07:00 +25°C° 0 mm 5 mps 741 mmHg 73%
    08:00 +27°C° 0 mm 5 mps 741 mmHg 69%
    09:00 +30°C° 0 mm 5 mps 741 mmHg 64%
    10:00 +33°C° 0 mm 5 mps 741 mmHg 59%
    11:00 +34°C° 0 mm 5 mps 741 mmHg 55%
    12:00 +35°C° 0 mm 4 mps 741 mmHg 51%
    13:00 +36°C° 0 mm 4 mps 740 mmHg 47%
    14:00 +36°C° 0 mm 4 mps 740 mmHg 45%
    15:00 +37°C° 0 mm 4 mps 740 mmHg 42%
    16:00 +37°C° 0 mm 4 mps 739 mmHg 39%
    17:00 +35°C° 0 mm 4 mps 740 mmHg 46%
    18:00 +31°C° 0 mm 3 mps 740 mmHg 52%
    19:00 +29°C° 0 mm 3 mps 741 mmHg 59%
    20:00 +28°C° 0 mm 2 mps 741 mmHg 62%
    21:00 +27°C° 0 mm 2 mps 742 mmHg 66%
    22:00 +26°C° 0 mm 1 mps 742 mmHg 69%
    23:00 +25°C° 0 mm 1 mps 742 mmHg 69%

    Day after tomorrow, 17 December, Monday

    Time Temperature Precipitation Wind Pressure Humidity
    00:00 +25°C° 0 mm 2 mps 742 mmHg 69%
    01:00 +24°C° 0 mm 2 mps 742 mmHg 70%
    02:00 +24°C° 0 mm 2 mps 742 mmHg 70%
    03:00 +22°C° 0 mm 3 mps 741 mmHg 70%
    04:00 +22°C° 0 mm 3 mps 741 mmHg 70%
    05:00 +24°C° 0 mm 3 mps 742 mmHg 70%
    06:00 +24°C° 0 mm 3 mps 742 mmHg 69%
    07:00 +25°C° 0 mm 3 mps 743 mmHg 69%
    08:00 +28°C° 0 mm 3 mps 743 mmHg 59%
    09:00 +31°C° 0 mm 3 mps 743 mmHg 49%
    10:00 +35°C° 0 mm 3 mps 743 mmHg 39%
    11:00 +37°C° 0 mm 3 mps 743 mmHg 34%
    12:00 +38°C° 0 mm 2 mps 743 mmHg 28%
    13:00 +40°C° 0 mm 2 mps 742 mmHg 23%
    14:00 +40°C° 0 mm 2 mps 742 mmHg 23%
    15:00 +40°C° 0 mm 2 mps 741 mmHg 23%
    16:00 +40°C° 0 mm 2 mps 741 mmHg 23%
    17:00 +37°C° 0 mm 2 mps 741 mmHg 33%
    18:00 +34°C° 0 mm 2 mps 741 mmHg 42%
    19:00 +30°C° 0 mm 2 mps 742 mmHg 52%
    20:00 +29°C° 0 mm 2 mps 742 mmHg 54%
    21:00 +28°C° 0 mm 2 mps 743 mmHg 56%
    22:00 +28°C° 0 mm 3 mps 743 mmHg 58%
    23:00 +27°C° 0 mm 3 mps 743 mmHg 57%

    18 December, Tuesday

    Time Temperature Precipitation Wind Pressure Humidity
    00:00 +27°C° 0 mm 3 mps 743 mmHg 56%
    01:00 +27°C° 0 mm 3 mps 743 mmHg 55%
    02:00 +26°C° 0 mm 3 mps 743 mmHg 54%
    03:00 +26°C° 0 mm 2 mps 742 mmHg 53%
    04:00 +26°C° 0 mm 2 mps 742 mmHg 52%
    05:00 +26°C° 0 mm 2 mps 743 mmHg 53%
    06:00 +27°C° 0 mm 2 mps 743 mmHg 54%
    07:00 +27°C° 0 mm 2 mps 744 mmHg 54%
    08:00 +31°C° 0 mm 2 mps 744 mmHg 47%
    09:00 +35°C° 0 mm 2 mps 744 mmHg 39%
    10:00 +38°C° 0 mm 2 mps 744 mmHg 31%
    11:00 +39°C° 0 mm 2 mps 744 mmHg 30%
    12:00 +40°C° 0 mm 3 mps 743 mmHg 28%
    13:00 +42°C° 0 mm 3 mps 743 mmHg 26%
    14:00 +40°C° 0 mm 3 mps 742 mmHg 31%
    15:00 +39°C° 0 mm 3 mps 742 mmHg 35%
    16:00 +40°C° 0 mm 4 mps 742 mmHg 39%
    17:00 +36°C° 0 mm 3 mps 742 mmHg 51%
    18:00 +34°C° 0 mm 2 mps 743 mmHg 62%
    19:00 +30°C° 0 mm 2 mps 743 mmHg 74%
    20:00 +30°C° 0.2 mm 2 mps 744 mmHg 79%
    21:00 +29°C° 0.2 mm 1 mps 745 mmHg 83%
    22:00 +28°C° 0.2 mm 1 mps 745 mmHg 88%
    23:00 +28°C° 0.2 mm 1 mps 745 mmHg 89%

    19 December, Wednesday

    Time Temperature Precipitation Wind Pressure Humidity
    00:00 +28°C° 0.2 mm 1 mps 745 mmHg 89%
    01:00 +28°C° 0.2 mm 1 mps 745 mmHg 89%
    02:00 +28°C° 0 mm 1 mps 745 mmHg 89%
    03:00 +28°C° 0 mm 1 mps 744 mmHg 89%
    04:00 +28°C° 0 mm 2 mps 744 mmHg 90%
    05:00 +28°C° 0 mm 2 mps 745 mmHg 88%
    06:00 +29°C° 0 mm 2 mps 745 mmHg 87%
    07:00 +29°C° 0 mm 2 mps 745 mmHg 86%
    08:00 +31°C° 0 mm 2 mps 745 mmHg 77%
    09:00 +34°C° 0 mm 2 mps 746 mmHg 69%
    10:00 +36°C° 0 mm 3 mps 746 mmHg 60%
    11:00 +36°C° 0 mm 3 mps 745 mmHg 58%
    12:00 +37°C° 0 mm 3 mps 745 mmHg 56%
    13:00 +37°C° 0 mm 3 mps 744 mmHg 54%
    14:00 +36°C° 0.1 mm 3 mps 744 mmHg 57%
    15:00 +36°C° 0.1 mm 3 mps 744 mmHg 61%
    16:00 +35°C° 0.1 mm 3 mps 743 mmHg 64%
    17:00 +33°C° 1.1 mm 3 mps 744 mmHg 72%
    18:00 +31°C° 1.1 mm 3 mps 744 mmHg 80%
    19:00 +29°C° 1.1 mm 2 mps 745 mmHg 87%
    20:00 +29°C° 0 mm 2 mps 745 mmHg 89%
    21:00 +29°C° 0 mm 2 mps 746 mmHg 90%
    22:00 +28°C° 0 mm 1 mps 746 mmHg 92%
    23:00 +28°C° 0.1 mm 1 mps 746 mmHg 93%

    20 December, Thursday

    Time Temperature Precipitation Wind Pressure Humidity
    00:00 +28°C° 0.1 mm 1 mps 746 mmHg 94%
    01:00 +27°C° 0.1 mm 1 mps 745 mmHg 94%
    02:00 +27°C° 0 mm 1 mps 745 mmHg 95%
    03:00 +25°C° 0 mm 0 mps 745 mmHg 96%
    04:00 +25°C° 0 mm 0 mps 745 mmHg 97%
    05:00 +27°C° 0 mm 1 mps 745 mmHg 94%
    06:00 +28°C° 0 mm 1 mps 746 mmHg 91%
    07:00 +28°C° 0 mm 1 mps 746 mmHg 89%
    08:00 +31°C° 0 mm 1 mps 746 mmHg 79%
    09:00 +33°C° 0 mm 1 mps 746 mmHg 69%
    10:00 +35°C° 0 mm 1 mps 746 mmHg 59%
    11:00 +37°C° 0 mm 2 mps 746 mmHg 56%
    12:00 +37°C° 0 mm 2 mps 745 mmHg 54%
    13:00 +38°C° 0 mm 2 mps 744 mmHg 51%
    14:00 +37°C° 0.2 mm 2 mps 744 mmHg 55%
    15:00 +36°C° 0.2 mm 3 mps 743 mmHg 59%
    16:00 +35°C° 0.2 mm 3 mps 743 mmHg 63%
    17:00 +34°C° 0.1 mm 3 mps 743 mmHg 71%
    18:00 +31°C° 0.1 mm 2 mps 743 mmHg 78%
    19:00 +29°C° 0.1 mm 2 mps 744 mmHg 86%
    20:00 +29°C° 0 mm 2 mps 744 mmHg 87%
    21:00 +29°C° 0 mm 2 mps 744 mmHg 89%
    22:00 +28°C° 0 mm 2 mps 745 mmHg 91%
    23:00 +28°C° 0 mm 2 mps 744 mmHg 92%
    Show more